| time (UTC) | temp C | wind direction | speed KPH | gust KPH | rain 1hr cm | rain 24hr cm | rain mn cm | humidity % | barometer mb |
| 20260508023042 | 8 | 0 | 0.0 | 4.8 | 0.03 | 2.74 | 2.74 | 94 | 1001.3 |
| 20260508021542 | 7 | 0 | 0.0 | 4.8 | 0.05 | 2.74 | 2.74 | 94 | 1001.2 |
| 20260508020044 | 7 | 0 | 0.0 | 0.0 | 0.05 | 2.72 | 2.72 | 94 | 1001.3 |
| 20260508014541 | 7 | 0 | 0.0 | 0.0 | 0.05 | 2.72 | 2.72 | 94 | 1001.2 |
| 20260508013046 | 8 | 0 | 0.0 | 0.0 | 0.08 | 2.72 | 2.72 | 94 | 1001.0 |
| 20260508011548 | 8 | 0 | 0.0 | 1.6 | 0.08 | 2.69 | 2.69 | 94 | 1000.9 |
| 20260508010042 | 9 | 0 | 0.0 | 4.8 | 0.08 | 2.67 | 2.67 | 94 | 1001.1 |
| 20260508004548 | 9 | 0 | 0.0 | 4.8 | 0.08 | 2.64 | 2.64 | 94 | 1001.1 |
| 20260508003043 | 9 | 0 | 0.0 | 4.8 | 0.10 | 2.62 | 2.62 | 94 | 1001.6 |
| 20260508001542 | 9 | 315 | 0.0 | 4.8 | 0.10 | 2.59 | 2.59 | 94 | 1001.5 |
| 20260508000045 | 9 | 0 | 0.0 | 1.6 | 0.13 | 2.57 | 2.57 | 94 | 1001.5 |
| 20260507234549 | 9 | 0 | 0.0 | 3.2 | 0.15 | 2.54 | 2.54 | 94 | 1001.5 |
| 20260507233047 | 10 | 315 | 0.0 | 3.2 | 0.15 | 2.51 | 2.51 | 94 | 1001.4 |
| 20260507231549 | 10 | 315 | 3.2 | 8.0 | 0.15 | 2.46 | 2.46 | 94 | 1001.6 |
| 20260507230042 | 10 | 316 | 3.2 | 9.7 | 0.18 | 2.44 | 2.44 | 94 | 1001.7 |
| 20260507224541 | 10 | 0 | 1.6 | 4.8 | 0.18 | 2.39 | 2.39 | 94 | 1001.5 |
| 20260507223041 | 10 | 67 | 1.6 | 9.7 | 0.20 | 2.34 | 2.34 | 94 | 1001.8 |
| 20260507221543 | 10 | 237 | 3.2 | 12.9 | 0.25 | 2.31 | 2.31 | 94 | 1001.8 |
| 20260507220042 | 10 | 275 | 3.2 | 8.0 | 0.28 | 2.24 | 2.24 | 94 | 1001.9 |
| 20260507214541 | 10 | 256 | 3.2 | 9.7 | 0.28 | 2.18 | 2.18 | 94 | 1002.1 |
| 20260507213046 | 10 | 303 | 0.0 | 8.0 | 0.33 | 2.13 | 2.13 | 94 | 1002.3 |
| 20260507211544 | 10 | 0 | 0.0 | 8.0 | 0.36 | 2.06 | 2.06 | 94 | 1002.2 |
| 20260507210046 | 10 | 0 | 0.0 | 0.0 | 0.41 | 1.96 | 1.96 | 94 | 1001.4 |
| 20260507204548 | 10 | 0 | 0.0 | 3.2 | 0.43 | 1.88 | 1.88 | 94 | 1001.9 |
| 20260507203045 | 10 | 21 | 0.0 | 4.8 | 0.48 | 1.78 | 1.78 | 94 | 1002.3 |
| 20260507201558 | 10 | 0 | 0.0 | 4.8 | 0.51 | 1.68 | 1.68 | 93 | 1002.9 |
| 20260507200045 | 10 | 0 | 0.0 | 4.8 | 0.51 | 1.55 | 1.55 | 93 | 1002.9 |
| 20260507194551 | 10 | 0 | 0.0 | 4.8 | 0.56 | 1.42 | 1.42 | 93 | 1003.8 |
| 20260507193054 | 10 | 8 | 3.2 | 6.4 | 0.56 | 1.30 | 1.30 | 93 | 1004.0 |
| 20260507191548 | 10 | 23 | 1.6 | 4.8 | 0.56 | 1.14 | 1.14 | 93 | 1004.4 |
| 20260507190046 | 11 | 0 | 0.0 | 4.8 | 0.48 | 1.02 | 1.02 | 93 | 1004.5 |
| 20260507184545 | 11 | 180 | 1.6 | 6.4 | 0.41 | 0.86 | 0.86 | 93 | 1004.6 |
| 20260507183044 | 11 | 223 | 0.0 | 12.9 | 0.28 | 0.71 | 0.71 | 93 | 1004.9 |
| 20260507181542 | 11 | 94 | 0.0 | 4.8 | 0.18 | 0.58 | 0.58 | 93 | 1004.7 |
| 20260507180049 | 11 | 350 | 1.6 | 11.3 | 0.10 | 0.48 | 0.48 | 92 | 1004.8 |
| 20260507174557 | 11 | 123 | 0.0 | 4.8 | 0.08 | 0.46 | 0.46 | 92 | 1004.3 |
| 20260507173048 | 11 | 0 | 1.6 | 6.4 | 0.08 | 0.43 | 0.43 | 92 | 1004.5 |
| 20260507171559 | 11 | 30 | 1.6 | 17.7 | 0.03 | 0.38 | 0.38 | 92 | 1005.0 |
| 20260507170047 | 12 | 139 | 1.6 | 14.5 | 0.00 | 0.36 | 0.36 | 91 | 1005.5 |
| 20260507164540 | 12 | 27 | 1.6 | 8.0 | 0.00 | 0.36 | 0.36 | 90 | 1005.8 |
| 20260507163040 | 12 | 111 | 0.0 | 11.3 | 0.00 | 0.36 | 0.36 | 90 | 1006.1 |
| 20260507161545 | 12 | 239 | 4.8 | 20.9 | 0.00 | 0.36 | 0.36 | 90 | 1006.5 |
| 20260507160048 | 12 | 126 | 6.4 | 19.3 | 0.00 | 0.36 | 0.36 | 90 | 1006.7 |
| 20260507154541 | 12 | 0 | 1.6 | 17.7 | 0.00 | 0.36 | 0.36 | 90 | 1007.1 |
| 20260507153040 | 12 | 221 | 6.4 | 19.3 | 0.00 | 0.36 | 0.36 | 91 | 1007.1 |
| 20260507151543 | 12 | 0 | 4.8 | 22.5 | 0.00 | 0.36 | 0.36 | 91 | 1007.6 |
| 20260507150040 | 12 | 147 | 4.8 | 19.3 | 0.00 | 0.36 | 0.36 | 92 | 1007.9 |
| 20260507144610 | 12 | 224 | 1.6 | 14.5 | 0.00 | 0.36 | 0.36 | 92 | 1008.1 |
| 20260507143045 | 12 | 275 | 1.6 | 17.7 | 0.00 | 0.36 | 0.36 | 92 | 1008.6 |
| 20260507141543 | 12 | 312 | 3.2 | 16.1 | 0.00 | 0.36 | 0.36 | 92 | 1009.0 |
| 20260507140040 | 12 | 94 | 8.0 | 19.3 | 0.00 | 0.36 | 0.36 | 93 | 1009.2 |
| 20260507134549 | 12 | 65 | 3.2 | 29.0 | 0.00 | 0.36 | 0.36 | 93 | 1009.2 |
| 20260507133046 | 12 | 58 | 4.8 | 14.5 | 0.00 | 0.36 | 0.36 | 94 | 1009.4 |
| 20260507131544 | 12 | 55 | 4.8 | 20.9 | 0.00 | 0.36 | 0.36 | 94 | 1009.3 |
| 20260507130041 | 12 | 311 | 3.2 | 11.3 | 0.00 | 0.36 | 0.36 | 94 | 1009.9 |
| 20260507124541 | 12 | 122 | 1.6 | 11.3 | 0.00 | 0.36 | 0.36 | 95 | 1009.4 |
| 20260507123040 | 11 | 208 | 1.6 | 14.5 | 0.08 | 0.36 | 0.36 | 94 | 1009.8 |
| 20260507121542 | 11 | 58 | 0.0 | 11.3 | 0.13 | 0.36 | 0.36 | 94 | 1010.1 |
| 20260507120041 | 11 | 0 | 0.0 | 19.3 | 0.15 | 0.36 | 0.36 | 95 | 1010.3 |
| 20260507114541 | 10 | 315 | 3.2 | 6.4 | 0.15 | 0.33 | 0.33 | 94 | 1010.8 |
| 20260507113047 | 10 | 335 | 1.6 | 9.7 | 0.10 | 0.28 | 0.28 | 94 | 1011.2 |
| 20260507111550 | 10 | 65 | 0.0 | 4.8 | 0.05 | 0.20 | 0.20 | 94 | 1011.3 |
| 20260507110046 | 10 | 0 | 0.0 | 4.8 | 0.08 | 0.18 | 0.18 | 94 | 1011.2 |
| 20260507104542 | 10 | 0 | 1.6 | 8.0 | 0.08 | 0.18 | 0.18 | 95 | 1011.3 |
| 20260507103050 | 10 | 0 | 0.0 | 3.2 | 0.05 | 0.15 | 0.15 | 94 | 1011.6 |
| 20260507101550 | 10 | 0 | 0.0 | 4.8 | 0.08 | 0.15 | 0.15 | 94 | 1012.0 |
| 20260507100045 | 10 | 51 | 0.0 | 6.4 | 0.03 | 0.10 | 0.10 | 94 | 1011.8 |
| 20260507094546 | 10 | 312 | 0.0 | 4.8 | 0.00 | 0.08 | 0.08 | 94 | 1012.2 |
| 20260507093045 | 10 | 0 | 0.0 | 4.8 | 0.00 | 0.08 | 0.08 | 94 | 1012.1 |
| 20260507091542 | 10 | 0 | 0.0 | 0.0 | 0.00 | 0.08 | 0.08 | 94 | 1012.5 |
| 20260507090041 | 10 | 0 | 0.0 | 4.8 | 0.00 | 0.08 | 0.08 | 94 | 1012.3 |
| 20260507084546 | 10 | 0 | 0.0 | 4.8 | 0.00 | 0.08 | 0.08 | 94 | 1012.3 |
| 20260507083044 | 10 | 313 | 1.6 | 6.4 | 0.00 | 0.08 | 0.08 | 93 | 1012.2 |
| 20260507081541 | 10 | 0 | 0.0 | 3.2 | 0.00 | 0.05 | 0.05 | 94 | 1012.2 |
| 20260507080046 | 10 | 312 | 0.0 | 4.8 | 0.00 | 0.05 | 0.05 | 94 | 1012.7 |
| 20260507074544 | 10 | 308 | 0.0 | 6.4 | 0.00 | 0.05 | 0.05 | 94 | 1012.8 |
| 20260507073045 | 10 | 0 | 0.0 | 0.0 | 0.00 | 0.05 | 0.05 | 93 | 1013.1 |
| 20260507071547 | 10 | 0 | 0.0 | 4.8 | 0.00 | 0.05 | 0.05 | 93 | 1013.2 |
| 20260507070046 | 10 | 358 | 0.0 | 6.4 | 0.03 | 0.05 | 0.05 | 93 | 1013.4 |
| 20260507064544 | 10 | 0 | 1.6 | 6.4 | 0.05 | 0.05 | 0.05 | 93 | 1013.4 |
| 20260507063047 | 9 | 0 | 0.0 | 4.8 | 0.05 | 0.05 | 0.05 | 92 | 1013.6 |
| 20260507061544 | 9 | 300 | 0.0 | 3.2 | 0.05 | 0.05 | 0.05 | 91 | 1014.0 |
| 20260507060052 | 9 | 0 | 0.0 | 0.0 | 0.00 | 0.00 | 0.00 | 91 | 1014.0 |
| 20260507054548 | 9 | 0 | 0.0 | 0.0 | 0.00 | 0.00 | 0.00 | 91 | 1014.2 |
| 20260507053042 | 9 | 0 | 0.0 | 1.6 | 0.00 | 0.00 | 0.00 | 90 | 1014.6 |
| 20260507051541 | 9 | 0 | 0.0 | 1.6 | 0.00 | 0.00 | 0.00 | 90 | 1014.8 |
| 20260507050050 | 10 | 298 | 0.0 | 4.8 | 0.00 | 0.00 | 0.00 | 90 | 1015.2 |
| 20260507044554 | 10 | 0 | 0.0 | 6.4 | 0.00 | 0.00 | 0.00 | 90 | 1015.5 |
| 20260507043042 | 10 | 0 | 1.6 | 4.8 | 0.00 | 0.00 | 0.00 | 90 | 1015.6 |
| 20260507041541 | 9 | 303 | 1.6 | 8.0 | 0.00 | 0.00 | 0.00 | 90 | 1015.9 |
| 20260507040044 | 9 | 306 | 1.6 | 9.7 | 0.00 | 0.00 | 0.00 | 90 | 1016.1 |
| 20260507034545 | 9 | 296 | 1.6 | 6.4 | 0.00 | 0.00 | 0.00 | 90 | 1016.6 |
| 20260507033044 | 10 | 0 | 3.2 | 8.0 | 0.00 | 0.00 | 0.00 | 89 | 1016.7 |
| 20260507031541 | 10 | 314 | 1.6 | 4.8 | 0.00 | 0.00 | 0.00 | 89 | 1016.8 |
| 20260507030048 | 10 | 314 | 1.6 | 6.4 | 0.00 | 0.00 | 0.00 | 89 | 1016.8 |
| 20260507024544 | 10 | 316 | 1.6 | 8.0 | 0.00 | 0.00 | 0.00 | 89 | 1017.0 |